QPF
0.13 0.18 0.30 0.29 0.23 0.16 0.16 0.15 0.16 0.17 0.18 0.16 0.15 0.13 0.13 0.11 0.10 0.10 0.12 0.15 0.12 0.06 0.03 0.02 0.02 0.02 0.03 0.03 0.02 0.02 0.02 0.02 0.04 0.04 0.02 0.03 0.04 0.05 0.04 0.04 0.03 0.03 0.03
0.18 0.21 0.31 0.31 0.21 0.17 0.16 0.14 0.17 0.20 0.19 0.15 0.14 0.15 0.15 0.15 0.13 0.14 0.13 0.10 0.06 0.04 0.03 0.03 0.03 0.03 0.03 0.03 0.02 0.02 0.02 0.02 0.03 0.06 0.06 0.06 0.06 0.05 0.04 0.03 0.02 0.03 0.02
0.12 0.15 0.22 0.25 0.20 0.18 0.16 0.16 0.13 0.13 0.12 0.11 0.13 0.14 0.14 0.14 0.16 0.12 0.07 0.05 0.04 0.04 0.03 0.02 0.02 0.01 0.02 0.02 0.01 0.02 0.02 0.03 0.02 0.04 0.05 0.05 0.04 0.03 0.02 0.02 0.02 0.02 0.02
0.08 0.10 0.14 0.23 0.22 0.18 0.16 0.14 0.09 0.08 0.08 0.10 0.12 0.14 0.12 0.12 0.11 0.07 0.05 0.03 0.03 0.03 0.03 0.03 0.01 0.01 0.01 0.01 0.01 0.01 0.01 0.02 0.02 0.02 0.02 0.03 0.03 0.03 0.02 0.03 0.02 0.01 0.02
0.08 0.11 0.16 0.23 0.20 0.15 0.13 0.12 0.09 0.07 0.06 0.08 0.10 0.10 0.07 0.07 0.06 0.04 0.03 0.03 0.03 0.02 0.02 0.03 0.03 0.01 0.01 0.01 0.01 0.02 0.01 0.01 0.01 0.01 0.01 0.03 0.04 0.03 0.03 0.03 0.02 0.02 0.02
0.09 0.12 0.15 0.16 0.15 0.12 0.13 0.12 0.10 0.09 0.07 0.07 0.07 0.07 0.04 0.03 0.04 0.03 0.03 0.03 0.03 0.02 0.01 0.02 0.04 0.03 0.02 0.02 0.02 0.02 0.01 0.01 0.00 0.00 0.01 0.02 0.03 0.03 0.03 0.04 0.03 0.03 0.05
0.08 0.11 0.15 0.16 0.13 0.11 0.11 0.10 0.07 0.07 0.07 0.07 0.06 0.06 0.04 0.04 0.03 0.02 0.02 0.02 0.03 0.02 0.02 0.03 0.04 0.03 0.02 0.03 0.03 0.03 0.02 0.01 0.00 0.01 0.02 0.02 0.03 0.02 0.03 0.04 0.04 0.05 0.05
0.06 0.09 0.14 0.16 0.12 0.10 0.09 0.08 0.06 0.05 0.06 0.06 0.06 0.06 0.04 0.03 0.03 0.02 0.02 0.02 0.02 0.03 0.05 0.05 0.03 0.02 0.02 0.05 0.05 0.03 0.02 0.02 0.01 0.01 0.02 0.02 0.03 0.02 0.03 0.04 0.04 0.04 0.03
0.05 0.09 0.12 0.14 0.11 0.10 0.10 0.10 0.09 0.07 0.06 0.06 0.05 0.05 0.05 0.03 0.03 0.03 0.02 0.03 0.02 0.03 0.04 0.04 0.02 0.02 0.03 0.04 0.03 0.02 0.03 0.03 0.02 0.02 0.02 0.02 0.02 0.03 0.03 0.04 0.05 0.05 0.04
0.07 0.09 0.12 0.13 0.12 0.10 0.09 0.11 0.10 0.07 0.06 0.06 0.04 0.04 0.06 0.05 0.04 0.03 0.03 0.03 0.03 0.03 0.03 0.05 0.04 0.03 0.03 0.03 0.04 0.03 0.04 0.03 0.03 0.02 0.02 0.01 0.01 0.02 0.03 0.03 0.06 0.06 0.05
0.08 0.08 0.11 0.14 0.13 0.09 0.07 0.07 0.08 0.07 0.06 0.05 0.05 0.05 0.06 0.08 0.06 0.05 0.03 0.02 0.04 0.04 0.04 0.05 0.04 0.04 0.03 0.04 0.04 0.04 0.03 0.02 0.02 0.02 0.01 0.01 0.01 0.02 0.02 0.03 0.05 0.05 0.05
0.05 0.07 0.11 0.19 0.16 0.07 0.05 0.06 0.07 0.05 0.07 0.07 0.06 0.06 0.06 0.07 0.07 0.04 0.03 0.03 0.04 0.04 0.04 0.05 0.05 0.03 0.02 0.04 0.03 0.02 0.02 0.02 0.02 0.01 0.01 0.01 0.02 0.02 0.02 0.03 0.03 0.04 0.04
0.02 0.04 0.12 0.27 0.17 0.06 0.03 0.05 0.05 0.05 0.06 0.07 0.06 0.06 0.06 0.05 0.04 0.04 0.07 0.07 0.07 0.06 0.07 0.05 0.04 0.03 0.03 0.04 0.02 0.03 0.02 0.01 0.02 0.01 0.01 0.01 0.02 0.03 0.03 0.03 0.03 0.03 0.04
0.02 0.02 0.05 0.10 0.08 0.06 0.04 0.04 0.03 0.03 0.04 0.06 0.08 0.06 0.06 0.05 0.04 0.05 0.08 0.08 0.08 0.10 0.09 0.08 0.07 0.05 0.03 0.03 0.03 0.03 0.03 0.02 0.01 0.02 0.03 0.02 0.03 0.03 0.04 0.04 0.04 0.04 0.04
0.02 0.03 0.02 0.04 0.05 0.06 0.05 0.05 0.03 0.04 0.04 0.05 0.06 0.06 0.05 0.06 0.05 0.06 0.06 0.08 0.06 0.08 0.07 0.07 0.06 0.08 0.06 0.04 0.03 0.03 0.04 0.03 0.02 0.02 0.02 0.02 0.03 0.02 0.04 0.05 0.06 0.06 0.05
0.01 0.02 0.02 0.02 0.03 0.05 0.05 0.04 0.03 0.04 0.05 0.05 0.05 0.05 0.05 0.06 0.06 0.06 0.06 0.08 0.07 0.07 0.06 0.07 0.06 0.09 0.09 0.07 0.06 0.04 0.03 0.03 0.03 0.02 0.02 0.03 0.03 0.02 0.03 0.04 0.06 0.07 0.07
0.01 0.01 0.01 0.01 0.02 0.03 0.04 0.04 0.06 0.05 0.05 0.06 0.09 0.08 0.07 0.06 0.06 0.06 0.06 0.06 0.08 0.08 0.08 0.08 0.07 0.07 0.06 0.06 0.07 0.05 0.04 0.04 0.04 0.04 0.03 0.03 0.04 0.02 0.02 0.03 0.04 0.05 0.06
0.01 0.01 0.01 0.01 0.02 0.02 0.03 0.03 0.03 0.05 0.07 0.07 0.06 0.08 0.08 0.07 0.06 0.06 0.05 0.06 0.07 0.07 0.07 0.07 0.07 0.07 0.07 0.07 0.08 0.07 0.04 0.04 0.04 0.05 0.04 0.03 0.04 0.04 0.04 0.04 0.04 0.05 0.06
0.01 0.01 0.01 0.01 0.01 0.02 0.03 0.03 0.03 0.04 0.07 0.09 0.07 0.06 0.07 0.07 0.06 0.08 0.08 0.07 0.05 0.07 0.06 0.05 0.06 0.07 0.08 0.07 0.06 0.06 0.04 0.03 0.03 0.02 0.02 0.02 0.03 0.03 0.03 0.03 0.03 0.05 0.08
0.01 0.00 0.01 0.01 0.01 0.01 0.02 0.03 0.03 0.03 0.03 0.04 0.06 0.07 0.08 0.08 0.09 0.10 0.10 0.09 0.06 0.07 0.07 0.07 0.07 0.07 0.07 0.06 0.04 0.04 0.03 0.02 0.01 0.01 0.01 0.01 0.01 0.01 0.02 0.03 0.03 0.03 0.05
0.02 0.01 0.00 0.00 0.01 0.02 0.01 0.02 0.03 0.04 0.04 0.02 0.02 0.02 0.04 0.06 0.11 0.14 0.11 0.12 0.09 0.08 0.07 0.06 0.07 0.07 0.06 0.06 0.07 0.05 0.03 0.01 0.01 0.01 0.01 0.01 0.01 0.00 0.01 0.02 0.02 0.04 0.06
0.01 0.00 0.00 0.00 0.01 0.01 0.01 0.02 0.02 0.03 0.02 0.03 0.03 0.03 0.03 0.03 0.05 0.06 0.10 0.13 0.12 0.10 0.07 0.06 0.07 0.08 0.08 0.08 0.07 0.06 0.04 0.04 0.03 0.02 0.01 0.01 0.01 0.01 0.01 0.01 0.01 0.03 0.05
0.01 0.01 0.00 0.00 0.00 0.00 0.01 0.01 0.01 0.01 0.01 0.02 0.03 0.04 0.03 0.02 0.02 0.04 0.06 0.08 0.10 0.10 0.10 0.09 0.07 0.08 0.10 0.09 0.09 0.09 0.08 0.07 0.06 0.05 0.03 0.02 0.01 0.01 0.01 0.01 0.01 0.01 0.03
0.00 0.00 0.00 0.01 0.01 0.00 0.01 0.01 0.01 0.02 0.03 0.02 0.02 0.02 0.02 0.03 0.03 0.04 0.05 0.07 0.08 0.07 0.09 0.09 0.08 0.09 0.10 0.09 0.09 0.09 0.10 0.09 0.08 0.08 0.06 0.03 0.02 0.01 0.01 0.01 0.01 0.01 0.01
0.00 0.00 0.00 0.01 0.01 0.01 0.01 0.01 0.02 0.01 0.02 0.01 0.01 0.02 0.03 0.03 0.03 0.02 0.04 0.05 0.06 0.05 0.06 0.07 0.08 0.09 0.10 0.10 0.08 0.07 0.08 0.08 0.08 0.09 0.09 0.06 0.04 0.02 0.01 0.01 0.01 0.02 0.02
0.00 0.00 0.00 0.01 0.01 0.01 0.01 0.01 0.01 0.01 0.01 0.01 0.02 0.02 0.02 0.03 0.02 0.02 0.03 0.04 0.05 0.04 0.05 0.07 0.07 0.08 0.08 0.08 0.08 0.07 0.09 0.09 0.11 0.09 0.08 0.07 0.06 0.03 0.02 0.01 0.01 0.01 0.01
MSLP
1008.23 1008.37 1008.66 1009.08 1009.56 1010.07 1010.54 1010.95 1011.28 1011.54 1011.78 1012.01 1012.27 1012.58 1012.92 1013.31 1013.69 1014.06 1014.39 1014.66 1014.90 1015.10 1015.28 1015.47 1015.67 1015.88 1016.09 1016.28 1016.44 1016.55 1016.63 1016.67 1016.69 1016.73 1016.80 1016.91 1017.06 1017.24 1017.44 1017.64 1017.81 1017.96 1018.08
1008.12 1008.32 1008.67 1009.14 1009.66 1010.19 1010.68 1011.09 1011.42 1011.68 1011.91 1012.15 1012.42 1012.75 1013.13 1013.54 1013.95 1014.34 1014.66 1014.93 1015.14 1015.31 1015.48 1015.65 1015.84 1016.04 1016.24 1016.43 1016.57 1016.68 1016.74 1016.78 1016.81 1016.86 1016.96 1017.11 1017.30 1017.52 1017.75 1017.95 1018.12 1018.25 1018.34
1008.05 1008.29 1008.68 1009.18 1009.74 1010.30 1010.81 1011.24 1011.58 1011.85 1012.08 1012.32 1012.60 1012.94 1013.32 1013.73 1014.14 1014.50 1014.81 1015.05 1015.24 1015.40 1015.56 1015.72 1015.91 1016.12 1016.32 1016.50 1016.64 1016.73 1016.78 1016.81 1016.85 1016.92 1017.05 1017.23 1017.47 1017.72 1017.97 1018.19 1018.35 1018.46 1018.54
1008.05 1008.32 1008.73 1009.26 1009.84 1010.43 1010.96 1011.42 1011.78 1012.07 1012.32 1012.57 1012.85 1013.17 1013.54 1013.92 1014.30 1014.63 1014.90 1015.11 1015.29 1015.44 1015.59 1015.77 1015.97 1016.18 1016.39 1016.56 1016.69 1016.76 1016.80 1016.82 1016.85 1016.94 1017.09 1017.30 1017.57 1017.86 1018.13 1018.36 1018.53 1018.64 1018.70
1008.15 1008.43 1008.85 1009.38 1009.99 1010.59 1011.15 1011.63 1012.02 1012.34 1012.61 1012.87 1013.15 1013.47 1013.81 1014.16 1014.49 1014.79 1015.03 1015.21 1015.37 1015.52 1015.68 1015.87 1016.08 1016.30 1016.50 1016.66 1016.77 1016.81 1016.82 1016.82 1016.85 1016.94 1017.11 1017.35 1017.65 1017.96 1018.26 1018.51 1018.69 1018.80 1018.87
1008.36 1008.63 1009.04 1009.58 1010.18 1010.80 1011.37 1011.88 1012.29 1012.63 1012.93 1013.21 1013.49 1013.80 1014.13 1014.46 1014.76 1015.02 1015.24 1015.41 1015.56 1015.71 1015.88 1016.08 1016.29 1016.51 1016.70 1016.83 1016.91 1016.92 1016.90 1016.87 1016.89 1016.98 1017.15 1017.41 1017.73 1018.07 1018.39 1018.66 1018.85 1018.98 1019.06
1008.66 1008.91 1009.31 1009.83 1010.42 1011.03 1011.60 1012.11 1012.54 1012.90 1013.21 1013.51 1013.81 1014.13 1014.46 1014.78 1015.08 1015.33 1015.55 1015.72 1015.88 1016.04 1016.22 1016.42 1016.63 1016.83 1016.99 1017.09 1017.13 1017.10 1017.04 1016.98 1016.98 1017.06 1017.24 1017.51 1017.84 1018.20 1018.54 1018.82 1019.04 1019.19 1019.28
1009.02 1009.25 1009.63 1010.12 1010.68 1011.26 1011.81 1012.30 1012.72 1013.08 1013.40 1013.71 1014.04 1014.38 1014.73 1015.07 1015.39 1015.67 1015.91 1016.11 1016.28 1016.46 1016.64 1016.84 1017.04 1017.22 1017.34 1017.41 1017.39 1017.33 1017.23 1017.15 1017.12 1017.19 1017.36 1017.63 1017.97 1018.34 1018.69 1018.99 1019.23 1019.39 1019.50
1009.39 1009.62 1009.97 1010.42 1010.94 1011.47 1011.97 1012.42 1012.80 1013.15 1013.46 1013.78 1014.12 1014.49 1014.88 1015.27 1015.63 1015.96 1016.24 1016.48 1016.69 1016.89 1017.08 1017.27 1017.46 1017.60 1017.70 1017.72 1017.67 1017.57 1017.45 1017.34 1017.30 1017.35 1017.52 1017.78 1018.11 1018.47 1018.83 1019.13 1019.38 1019.55 1019.69
1009.75 1009.97 1010.30 1010.71 1011.18 1011.64 1012.08 1012.46 1012.79 1013.09 1013.38 1013.70 1014.05 1014.45 1014.88 1015.32 1015.75 1016.14 1016.47 1016.76 1017.01 1017.23 1017.43 1017.63 1017.79 1017.92 1017.99 1017.99 1017.92 1017.80 1017.66 1017.54 1017.49 1017.53 1017.67 1017.92 1018.23 1018.58 1018.91 1019.21 1019.46 1019.64 1019.79
1010.07 1010.29 1010.60 1010.98 1011.39 1011.78 1012.14 1012.45 1012.71 1012.95 1013.20 1013.49 1013.85 1014.26 1014.73 1015.22 1015.70 1016.15 1016.54 1016.88 1017.17 1017.42 1017.63 1017.83 1018.00 1018.12 1018.18 1018.18 1018.11 1017.99 1017.85 1017.74 1017.68 1017.70 1017.83 1018.04 1018.31 1018.63 1018.93 1019.21 1019.44 1019.62 1019.77
1010.30 1010.54 1010.85 1011.20 1011.56 1011.89 1012.17 1012.39 1012.58 1012.76 1012.96 1013.22 1013.56 1013.98 1014.46 1014.98 1015.51 1016.00 1016.43 1016.81 1017.13 1017.41 1017.65 1017.86 1018.03 1018.17 1018.25 1018.27 1018.22 1018.13 1018.02 1017.91 1017.85 1017.87 1017.96 1018.13 1018.36 1018.62 1018.88 1019.12 1019.33 1019.50 1019.64
1010.44 1010.70 1011.02 1011.35 1011.67 1011.95 1012.17 1012.33 1012.45 1012.56 1012.71 1012.93 1013.24 1013.65 1014.13 1014.66 1015.19 1015.71 1016.17 1016.57 1016.91 1017.21 1017.47 1017.71 1017.91 1018.08 1018.20 1018.27 1018.27 1018.23 1018.15 1018.07 1018.02 1018.01 1018.07 1018.20 1018.37 1018.57 1018.78 1018.97 1019.15 1019.30 1019.43
1010.48 1010.76 1011.08 1011.40 1011.70 1011.94 1012.12 1012.23 1012.31 1012.38 1012.49 1012.67 1012.95 1013.33 1013.78 1014.29 1014.82 1015.32 1015.79 1016.19 1016.55 1016.87 1017.16 1017.42 1017.67 1017.89 1018.07 1018.20 1018.27 1018.28 1018.26 1018.21 1018.16 1018.15 1018.17 1018.25 1018.36 1018.50 1018.64 1018.79 1018.92 1019.05 1019.17
1010.41 1010.69 1011.01 1011.32 1011.61 1011.84 1012.00 1012.11 1012.17 1012.22 1012.30 1012.46 1012.70 1013.03 1013.45 1013.92 1014.41 1014.88 1015.33 1015.73 1016.09 1016.42 1016.74 1017.04 1017.33 1017.61 1017.86 1018.06 1018.21 1018.29 1018.32 1018.30 1018.27 1018.25 1018.24 1018.27 1018.33 1018.41 1018.50 1018.60 1018.69 1018.79 1018.90
1010.23 1010.49 1010.79 1011.10 1011.38 1011.62 1011.79 1011.91 1011.98 1012.04 1012.12 1012.26 1012.47 1012.77 1013.13 1013.55 1013.99 1014.42 1014.83 1015.21 1015.57 1015.91 1016.25 1016.59 1016.93 1017.27 1017.59 1017.86 1018.08 1018.23 1018.31 1018.33 1018.32 1018.29 1018.27 1018.26 1018.27 1018.30 1018.35 1018.40 1018.47 1018.54 1018.63
1009.96 1010.19 1010.45 1010.74 1011.02 1011.27 1011.47 1011.62 1011.72 1011.82 1011.91 1012.05 1012.24 1012.50 1012.81 1013.17 1013.55 1013.93 1014.31 1014.66 1015.01 1015.35 1015.71 1016.08 1016.47 1016.86 1017.23 1017.57 1017.85 1018.06 1018.19 1018.26 1018.27 1018.24 1018.21 1018.18 1018.16 1018.15 1018.17 1018.19 1018.23 1018.28 1018.35
1009.66 1009.81 1010.03 1010.28 1010.55 1010.81 1011.04 1011.24 1011.39 1011.53 1011.65 1011.79 1011.97 1012.19 1012.46 1012.76 1013.08 1013.41 1013.75 1014.08 1014.41 1014.76 1015.13 1015.52 1015.94 1016.36 1016.78 1017.17 1017.50 1017.76 1017.94 1018.05 1018.08 1018.08 1018.05 1018.01 1017.97 1017.94 1017.93 1017.93 1017.94 1017.97 1018.02
1009.36 1009.43 1009.57 1009.78 1010.03 1010.30 1010.56 1010.80 1011.00 1011.18 1011.33 1011.48 1011.64 1011.83 1012.05 1012.30 1012.57 1012.86 1013.15 1013.46 1013.78 1014.12 1014.50 1014.90 1015.33 1015.78 1016.23 1016.65 1017.02 1017.32 1017.54 1017.68 1017.76 1017.78 1017.76 1017.72 1017.67 1017.63 1017.60 1017.57 1017.56 1017.56 1017.59
1009.13 1009.11 1009.17 1009.33 1009.55 1009.81 1010.09 1010.35 1010.59 1010.79 1010.96 1011.11 1011.25 1011.40 1011.58 1011.78 1012.01 1012.26 1012.52 1012.81 1013.12 1013.45 1013.82 1014.22 1014.66 1015.11 1015.57 1016.00 1016.40 1016.73 1016.99 1017.18 1017.29 1017.34 1017.34 1017.31 1017.26 1017.21 1017.15 1017.09 1017.05 1017.02 1017.02
1009.01 1008.90 1008.89 1008.99 1009.16 1009.40 1009.67 1009.95 1010.19 1010.40 1010.56 1010.69 1010.81 1010.93 1011.06 1011.22 1011.40 1011.62 1011.86 1012.13 1012.43 1012.75 1013.11 1013.50 1013.92 1014.37 1014.82 1015.26 1015.67 1016.04 1016.34 1016.56 1016.72 1016.80 1016.83 1016.80 1016.75 1016.67 1016.58 1016.48 1016.40 1016.33 1016.30
1009.03 1008.84 1008.76 1008.80 1008.93 1009.13 1009.37 1009.62 1009.84 1010.03 1010.16 1010.26 1010.34 1010.41 1010.50 1010.62 1010.77 1010.96 1011.19 1011.45 1011.73 1012.04 1012.39 1012.76 1013.16 1013.58 1014.02 1014.46 1014.88 1015.27 1015.61 1015.87 1016.07 1016.19 1016.23 1016.22 1016.15 1016.04 1015.90 1015.76 1015.62 1015.51 1015.44
1009.19 1008.95 1008.80 1008.78 1008.85 1008.99 1009.18 1009.38 1009.55 1009.68 1009.77 1009.81 1009.83 1009.86 1009.90 1009.99 1010.11 1010.29 1010.51 1010.76 1011.03 1011.34 1011.66 1012.00 1012.38 1012.78 1013.20 1013.63 1014.06 1014.47 1014.84 1015.15 1015.39 1015.54 1015.61 1015.59 1015.50 1015.35 1015.16 1014.95 1014.76 1014.60 1014.49
1009.46 1009.17 1008.98 1008.89 1008.89 1008.96 1009.07 1009.19 1009.28 1009.33 1009.34 1009.32 1009.28 1009.26 1009.27 1009.32 1009.43 1009.60 1009.82 1010.07 1010.34 1010.63 1010.94 1011.26 1011.60 1011.97 1012.37 1012.80 1013.23 1013.66 1014.06 1014.41 1014.68 1014.87 1014.95 1014.93 1014.82 1014.63 1014.38 1014.12 1013.86 1013.65 1013.51
1009.79 1009.47 1009.23 1009.07 1008.99 1008.97 1008.99 1009.00 1008.99 1008.94 1008.87 1008.77 1008.67 1008.60 1008.57 1008.61 1008.72 1008.89 1009.12 1009.37 1009.65 1009.93 1010.22 1010.51 1010.83 1011.17 1011.55 1011.96 1012.39 1012.83 1013.26 1013.64 1013.95 1014.17 1014.27 1014.25 1014.12 1013.89 1013.61 1013.29 1012.98 1012.73 1012.56
1010.13 1009.79 1009.50 1009.27 1009.10 1008.98 1008.87 1008.76 1008.63 1008.48 1008.31 1008.13 1007.97 1007.86 1007.82 1007.85 1007.97 1008.15 1008.39 1008.65 1008.93 1009.21 1009.49 1009.76 1010.05 1010.36 1010.71 1011.10 1011.53 1011.98 1012.42 1012.83 1013.17 1013.40 1013.53 1013.52 1013.39 1013.15 1012.83 1012.48 1012.14 1011.86 1011.67
Thickness
5784 5784 5778 5778 5777 5777 5776 5774 5773 5771 5770 5770 5769 5768 5767 5766 5765 5764 5764 5763 5762 5761 5760 5759 5759 5758 5758 5757 5757 5757 5757 5756 5755 5755 5754 5752 5751 5751 5751 5750 5750 5750 5747
5787 5783 5778 5777 5776 5775 5774 5772 5771 5769 5768 5768 5767 5766 5765 5764 5763 5762 5762 5761 5760 5760 5759 5758 5758 5757 5756 5756 5756 5756 5756 5755 5754 5754 5753 5752 5751 5750 5750 5750 5750 5750 5746
5787 5782 5777 5775 5774 5773 5772 5770 5769 5767 5767 5766 5765 5764 5763 5762 5761 5761 5760 5760 5759 5759 5758 5757 5757 5756 5755 5755 5755 5755 5755 5755 5754 5754 5754 5756 5752 5749 5749 5749 5748 5747 5746
5787 5783 5778 5773 5773 5771 5770 5768 5767 5766 5765 5764 5763 5762 5761 5760 5760 5759 5758 5758 5758 5757 5757 5756 5756 5755 5755 5754 5754 5754 5754 5754 5754 5755 5758 5758 5755 5749 5748 5748 5747 5746 5745
5785 5782 5776 5772 5770 5769 5767 5766 5766 5764 5763 5762 5761 5760 5759 5759 5758 5758 5757 5757 5757 5756 5756 5755 5755 5754 5754 5753 5753 5753 5753 5753 5754 5757 5758 5757 5754 5749 5748 5747 5746 5745 5744
5783 5780 5774 5770 5768 5767 5765 5764 5763 5762 5761 5760 5759 5758 5758 5757 5757 5757 5756 5756 5755 5755 5755 5754 5754 5753 5753 5752 5752 5752 5752 5753 5755 5759 5758 5756 5754 5749 5748 5747 5746 5745 5744
5782 5779 5773 5769 5767 5765 5764 5763 5762 5761 5760 5759 5758 5757 5756 5756 5756 5756 5756 5755 5754 5754 5754 5754 5753 5753 5752 5752 5752 5752 5752 5753 5758 5759 5757 5756 5753 5749 5748 5747 5746 5745 5743
5782 5778 5772 5767 5765 5764 5763 5762 5761 5760 5759 5758 5757 5756 5756 5755 5755 5755 5755 5754 5754 5753 5753 5753 5753 5752 5752 5751 5751 5751 5751 5753 5757 5758 5758 5756 5751 5748 5747 5747 5745 5744 5743
5781 5778 5773 5769 5765 5763 5762 5761 5760 5759 5758 5758 5757 5756 5755 5755 5755 5754 5754 5753 5753 5753 5752 5752 5752 5752 5751 5751 5751 5751 5751 5753 5758 5758 5757 5755 5750 5748 5747 5746 5745 5744 5743
5780 5778 5774 5771 5768 5766 5763 5760 5759 5758 5758 5757 5757 5756 5756 5755 5755 5754 5754 5753 5753 5752 5752 5752 5752 5752 5751 5751 5751 5751 5751 5753 5759 5759 5758 5754 5750 5748 5747 5746 5745 5744 5743
5776 5776 5775 5772 5768 5767 5765 5761 5759 5758 5758 5757 5757 5757 5757 5759 5758 5756 5755 5753 5752 5752 5752 5752 5752 5751 5751 5751 5751 5751 5752 5757 5759 5760 5757 5752 5749 5748 5747 5746 5745 5744 5743
5773 5775 5774 5773 5770 5768 5766 5763 5761 5762 5760 5761 5760 5759 5760 5759 5758 5758 5755 5754 5753 5753 5752 5752 5752 5752 5753 5755 5754 5753 5756 5757 5759 5758 5756 5751 5749 5748 5747 5746 5745 5744 5743
5776 5774 5774 5773 5770 5769 5767 5765 5764 5763 5761 5761 5760 5759 5759 5760 5760 5760 5758 5756 5755 5755 5756 5754 5755 5757 5758 5758 5758 5759 5758 5759 5759 5759 5756 5751 5749 5748 5747 5746 5745 5744 5743
5777 5775 5775 5772 5770 5768 5767 5766 5764 5764 5763 5763 5760 5760 5760 5761 5761 5761 5759 5759 5758 5757 5757 5758 5757 5758 5757 5757 5758 5758 5758 5759 5759 5759 5755 5752 5750 5749 5748 5747 5746 5744 5743
5778 5776 5775 5772 5769 5766 5765 5765 5765 5764 5764 5763 5760 5760 5760 5761 5761 5761 5760 5759 5760 5759 5758 5757 5757 5757 5757 5758 5758 5758 5758 5758 5759 5759 5757 5753 5751 5749 5748 5747 5746 5745 5743
5780 5778 5776 5773 5770 5767 5765 5765 5765 5765 5763 5764 5762 5761 5761 5762 5761 5761 5761 5760 5760 5759 5760 5758 5758 5757 5758 5759 5758 5758 5758 5759 5758 5757 5759 5756 5753 5751 5749 5748 5747 5745 5744
5783 5780 5777 5775 5772 5769 5768 5767 5767 5766 5766 5765 5764 5762 5761 5762 5761 5761 5761 5761 5760 5759 5758 5758 5758 5758 5758 5759 5758 5758 5759 5759 5759 5757 5758 5758 5757 5753 5751 5749 5748 5746 5745
5787 5783 5780 5780 5776 5772 5770 5768 5769 5768 5767 5765 5764 5763 5762 5762 5761 5760 5762 5762 5760 5759 5759 5758 5759 5758 5758 5758 5757 5759 5760 5759 5759 5758 5759 5758 5758 5758 5754 5751 5750 5748 5746
5791 5786 5782 5781 5778 5776 5773 5770 5769 5768 5767 5767 5766 5765 5764 5763 5762 5761 5762 5761 5760 5760 5760 5760 5759 5758 5757 5757 5758 5758 5760 5761 5760 5761 5760 5759 5758 5757 5757 5754 5751 5750 5747
5795 5790 5786 5783 5781 5778 5776 5772 5771 5770 5770 5769 5768 5766 5765 5764 5763 5763 5763 5762 5762 5761 5760 5759 5757 5757 5757 5757 5760 5760 5760 5762 5761 5761 5761 5761 5759 5758 5758 5757 5754 5752 5749
5797 5792 5788 5785 5782 5779 5778 5775 5772 5772 5772 5772 5771 5769 5767 5766 5765 5763 5765 5762 5762 5761 5760 5760 5758 5757 5757 5758 5755 5755 5760 5762 5761 5760 5761 5761 5761 5759 5758 5756 5755 5755 5753
5800 5796 5791 5788 5786 5782 5781 5779 5777 5777 5776 5775 5774 5771 5769 5767 5766 5766 5764 5764 5763 5761 5759 5759 5757 5757 5758 5758 5754 5751 5751 5754 5756 5761 5760 5759 5759 5759 5758 5757 5755 5754 5753
5804 5800 5798 5793 5790 5786 5784 5782 5780 5777 5776 5775 5773 5772 5771 5769 5768 5767 5766 5765 5763 5763 5761 5759 5758 5755 5754 5756 5756 5751 5747 5745 5750 5756 5756 5757 5756 5757 5758 5757 5755 5754 5753
5810 5807 5802 5797 5793 5790 5787 5785 5781 5778 5776 5777 5776 5776 5773 5771 5770 5768 5767 5765 5763 5763 5761 5760 5760 5757 5754 5753 5755 5754 5753 5751 5746 5745 5751 5756 5755 5754 5755 5756 5756 5753 5752
5815 5811 5805 5800 5795 5792 5789 5787 5783 5781 5781 5781 5779 5776 5773 5773 5772 5770 5769 5766 5764 5763 5762 5760 5759 5757 5757 5754 5754 5754 5752 5750 5749 5744 5742 5746 5751 5754 5755 5754 5754 5753 5751
5817 5813 5808 5802 5797 5794 5791 5788 5785 5783 5781 5779 5777 5776 5774 5775 5774 5773 5770 5768 5766 5764 5762 5760 5758 5757 5756 5754 5753 5753 5751 5749 5747 5746 5743 5743 5745 5750 5752 5752 5752 5751 5750